Weather in Spasskiy

Russia / Chelyabinsk Oblast     53°42′11″N   59°11′56″E
temp.,
°C
wind,
m/s
gust,
m/s
humid.,
%
clouds,
%
prec.,
mm/h
press.,
hPa
HPBL,
m
8 may, sat
sat823:00+11s224636 0.0 101911
02:00+11sw1150100 0.0 101910
05:00+10sw1152100 0.0 101910
08:00+13w114598 0.0 1018136
11:00+17s1233100 0.0 10171165
14:00+19sse0129100 0.0 10162420
17:00+19nne3230100 0.0 10152220
20:00+15nnw4653100 0.0 1016317
9 may, sun
sun923:00+13n2362100 0.0 101662
02:00+13nw1263100 0.1 101532
05:00+11nnw1168100 0.3 101615
08:00+13n346250 0.6 1016278
11:00+18nne443423 0.6 10151733
14:00+19ne442797 0.0 10152586
17:00+20ne552939 0.0 10152624
20:00+16n364154 0.0 1016174
10 may, mon
mon1023:00+12ene37685 0.0 1018215
02:00+10n33754 0.0 101956
05:00+9n368090 0.0 1020121
08:00+11nne3774100 0.0 1022333
11:00+12nne2573100 0.1 1022332
14:00+17ne244810 0.0 10221298
17:00+18n1242100 0.0 10211345
20:00+16nnw3454100 0.0 102282
11 may, tue
tue1123:00+13nne335816 0.0 102421
02:00+10nne225856 0.0 102517
05:00+9nne1160100 0.0 102611
08:00+13ssw1148100 0.0 1026145
11:00+18wsw2237100 0.0 1026788
14:00+21w143694 0.0 10252107
17:00+19n464667 0.0 1025845
20:00+17nw355799 0.0 1025157
12 may, wed
wed1223:00+13nne38745 0.0 1027176
02:00+11n38635 0.0 1029168
05:00+8ne410697 0.0 1030241
08:00+12ne465436 0.0 1031505
11:00+15ne3437100 0.0 10301162
14:00+18n233218 0.0 10291534
17:00+20n353361 0.0 10272170
20:00+17ne3650100 0.0 1028207